Home   Weather   São Luis   Past weeks

Flag for Brazil Past Weather in São Luis, Maranhão, Brazil — Yesterday and Last 2 Weeks

90 °F

Scattered clouds.

Feels Like: 93 °F
Forecast: 79 / 88 °F
Wind: 17 mph from Northeast

Location: Sao Luiz Aeroporto

Current Time: Oct 28, 2016 at 3:07:57 PM

Latest Report: Oct 28, 2016 at 2:00 PM

Visibility: N/A

Pressure: 29.77 "Hg

Humidity: 49%

Dew Point: 68 °F

Location of São LuisLocation

Past Weather in São Luis — Graph


São Luis Temperature Yesterday

Maximum temperature yesterday: 90 °F (at 1:00 PM)
Minimum temperature yesterday: 81 °F (at 12:00 AM)
Average temperature yesterday: 84 °F

High & Low Weather Summary for the Past Weeks

High95 °F (Oct 15, 12:00 PM)89% (Oct 15, 12:00 PM)29.95 "Hg (Oct 15, 12:00 PM)
Low79 °F (Oct 14, 2:00 AM)41% (Oct 18, 12:00 PM)29.71 "Hg (Oct 26, 3:00 PM)
Average83 °F66%29.83 "Hg
* Reported Oct 13 2:00 PM — Oct 28 2:00 PM, São Luis, Weather by CustomWeather, © 2016

Note: Actual official high and low records may vary slightly from our data, if they occured in-between our weather recording intervals... More about our weather records


São Luis Weather History for the Previous 24 Hours

Scroll right to see more
Time TempWeatherWind HumidityBarometerVisibility
2:00 PM
Fri, Oct 28
90 °FScattered clouds.17 mph49%29.77 "HgN/A
1:00 PM91 °FScattered clouds.14 mph46%29.80 "HgN/A
12:00 PM90 °FPartly sunny.20 mph49%29.83 "HgN/A
11:00 AM88 °FPartly sunny.12 mph55%29.86 "HgN/A
10:00 AM86 °FPartly sunny.14 mph55%29.86 "HgN/A
9:00 AM84 °FPartly sunny.9 mph62%29.86 "HgN/A
8:00 AM84 °FScattered clouds.18 mph62%29.83 "HgN/A
7:00 AM81 °FScattered clouds.13 mph70%29.83 "HgN/A
6:00 AM81 °FScattered clouds.8 mph70%29.80 "HgN/A
5:00 AM79 °FPassing clouds.10 mph74%29.77 "HgN/A
4:00 AM81 °FPassing clouds.7 mph70%29.77 "HgN/A
1:00 AM81 °FPassing clouds.14 mph70%29.77 "HgN/A
12:00 AM81 °FClear.13 mph70%29.80 "Hg10 mi
11:00 PM
Thu, Oct 27
81 °FClear.12 mph70%29.80 "Hg10 mi
9:00 PM82 °FClear.16 mph66%29.83 "Hg10 mi
8:00 PM82 °FClear.18 mph66%29.80 "Hg10 mi
7:00 PM82 °FClear.18 mph66%29.77 "Hg10 mi
6:00 PM82 °FPassing clouds.25 mph62%29.77 "HgN/A
5:00 PM86 °FPassing clouds.25 mph55%29.74 "HgN/A
4:00 PM86 °FPassing clouds.25 mph59%29.74 "HgN/A
3:00 PM88 °FPassing clouds.22 mph55%29.74 "HgN/A
Weather by CustomWeather, © 2016

See weather overviewHow to use our weather pages